Location: Kerb�bon
(47.7970°N, 3.3487°W)
Time: 13:17:22
(UTC+00:00)

NOSS 3-4 (A) - Pass Details

Date: 12 May 2021
Orbit: 872 x 1340 km, 63.4° (Epoch: 06 May)

Event Time Altitude Azimuth Distance (km) Brightness Sun altitude
Rises 20:23:59 0° 318° (NW) 3,737 8.7 -6.8°
Reaches altitude 10° 20:26:36 10° 325° (NW) 2,848 7.4 -7.2°
Maximum altitude 20:33:07 47° 38° (NE) 1,460 4.5 -8.0°
Drops below altitude 10° 20:40:23 10° 111° (ESE) 3,169 5.6 -9.0°
Enters shadow 20:40:44 - 112° (ESE) 3,284 5.6 -9.0°
